Location: Glendale
(37.4556°N, 88.6714°W)
Time: 04:51:18
(UTC+00:00)

Cosmos 2278 Rocket - Pass Details

Date: 08 December 2019
Orbit: 843 x 844 km, 71.0° (Epoch: 23 January)

Event Time Altitude Azimuth Distance (km) Brightness Sun altitude
Rises 00:39:09 0° 330° (NNW) 3,406 5.6 -23.7°
Reaches altitude 10° 00:41:43 10° 323° (NW) 2,467 4.9 -24.2°
Maximum altitude 00:46:58 41° 255° (WSW) 1,209 3.4 -25.2°
Drops below altitude 10° 00:52:11 10° 187° (S) 2,452 4.8 -26.2°
Sets 00:54:45 0° 180° (S) 3,382 5.4 -26.7°
